Probability
84 94 100 100 100 100 100 100 97 97 97 97 94 90 87 90 90 90 90 90 97 97 97 97 100 100 100 100 100 100 100 100 100 100 100 100 100 97 97 100 100 100 100
84 90 100 100 100 100 100 100 97 97 97 97 97 87 87 90 97 90 90 90 94 97 97 97 100 100 100 100 97 97 100 100 100 100 100 100 97 100 100 100 100 100 100
94 97 100 100 100 100 100 100 97 94 94 90 94 94 90 90 87 87 84 90 90 94 94 97 97 100 100 100 100 100 97 97 100 100 100 100 97 100 97 97 97 97 97
90 97 100 100 100 100 100 100 97 94 94 90 87 84 87 84 84 81 81 84 84 84 87 94 94 94 97 97 100 97 97 100 100 100 100 100 97 97 100 94 90 97 97
94 100 100 100 100 100 100 100 97 90 90 90 90 84 81 74 81 81 77 81 71 74 81 77 84 87 87 81 87 94 87 94 100 97 100 97 97 97 94 90 94 87 94
100 100 100 100 100 100 100 100 94 87 87 84 81 77 71 77 77 74 74 74 74 68 71 81 81 81 74 77 84 84 90 90 100 81 94 97 94 94 94 90 87 90 94
94 100 100 100 97 97 97 97 94 94 84 81 74 74 74 74 71 71 68 65 58 58 68 71 71 68 58 68 74 87 90 100 90 84 94 94 97 94 90 90 87 87 87
77 87 97 100 100 100 100 100 97 97 94 84 77 74 65 68 68 71 61 55 48 52 55 58 52 42 48 55 52 71 84 94 74 84 97 87 97 94 94 90 87 87 84
52 74 87 90 97 97 100 100 100 97 97 90 90 81 74 68 55 52 48 42 39 39 35 48 39 32 35 45 42 58 77 94 74 71 81 84 97 90 81 81 87 87 87
23 42 58 71 90 94 94 97 100 100 100 100 97 90 87 81 71 68 65 42 32 32 23 23 23 26 29 39 55 58 87 84 42 52 58 84 100 87 84 84 84 81 90
10 16 26 42 48 65 84 87 90 94 97 97 100 100 97 84 55 61 61 71 35 19 16 16 19 26 32 52 71 74 71 29 39 58 52 94 94 81 77 87 84 77 84
13 16 10 23 23 32 58 77 84 81 94 97 97 97 90 71 48 61 68 81 48 19 16 29 32 26 26 3 26 71 3 26 32 45 55 94 94 81 77 81 77 81 81
16 13 13 13 6 16 35 45 71 74 81 94 94 94 87 71 61 29 16 42 19 6 6 10 10 0 0 0 0 0 0 3 6 13 68 97 84 74 77 77 74 77 84
10 13 6 10 13 6 23 29 42 55 61 61 77 61 65 55 45 16 13 10 13 10 3 0 0 0 0 0 0 0 0 0 6 10 32 90 74 68 65 65 74 71 77
0 3 3 3 3 3 13 29 32 42 48 35 52 61 52 58 42 39 16 16 16 13 10 0 0 0 0 0 0 0 0 0 0 3 13 84 74 61 58 55 61 74 77
3 0 3 0 0 0 3 10 16 23 45 45 58 45 45 55 45 45 32 16 6 6 6 3 0 0 0 0 0 0 0 0 0 6 3 32 81 74 71 65 58 71 71
0 0 0 3 0 3 3 13 13 13 13 42 39 32 26 32 45 42 39 16 6 10 6 0 0 0 0 0 0 0 0 0 0 3 10 3 23 71 81 77 58 58 71
0 0 0 0 0 0 0 10 13 16 6 13 35 42 29 35 35 42 45 32 13 13 6 0 0 0 0 0 0 0 0 0 0 0 0 6 0 3 42 77 71 68 71
0 0 0 0 0 0 0 3 6 10 10 13 19 23 32 32 32 39 35 39 16 23 13 6 0 0 0 0 0 0 0 0 0 0 0 0 0 3 3 32 68 68 65
0 0 0 0 0 0 0 3 3 10 13 13 19 26 26 29 29 32 39 35 29 26 13 0 3 6 6 6 0 0 0 0 0 0 0 0 0 0 0 0 6 16 65
0 0 0 0 0 0 0 0 3 10 10 13 19 19 26 29 35 32 32 32 32 26 13 10 0 0 6 3 0 0 0 0 0 0 0 0 0 0 0 0 0 0 6
0 0 0 0 0 0 0 0 6 3 13 13 16 13 19 29 26 29 35 29 32 26 26 10 10 0 3 0 0 0 0 0 0 0 0 0 0 0 0 0 0 0 0
0 0 0 0 0 0 0 0 3 3 16 19 19 16 23 23 32 29 32 35 26 29 19 16 10 3 0 0 0 0 0 0 0 0 0 0 0 0 0 0 0 0 0
0 0 0 0 0 0 0 0 0 3 3 6 6 10 26 26 29 23 35 42 32 23 16 16 13 3 0 0 0 0 0 0 0 0 0 0 0 0 0 0 0 0 0
0 0 0 0 0 0 0 0 0 0 0 3 10 10 10 16 29 29 26 29 29 23 23 16 16 6 3 0 0 0 0 0 0 0 0 0 0 0 0 0 0 0 0
0 0 0 0 0 0 0 0 0 0 0 0 0 3 6 13 16 19 19 16 19 16 19 23 23 10 10 0 0 0 0 0 0 0 0 0 0 0 0 0 0 0 0
Height
5913 5912 5912 5912 5912 5912 5912 5912 5912 5911 5911 5911 5911 5911 5911 5911 5911 5911 5911 5912 5912 5912 5913 5913 5914 5915 5915 5916 5916 5916 5917 5917 5917 5917 5917 5917 5917 5916 5916 5916 5916 5915 5915
5914 5914 5914 5914 5913 5913 5913 5913 5913 5913 5912 5912 5912 5912 5912 5912 5912 5912 5912 5912 5912 5912 5913 5913 5913 5914 5914 5915 5915 5915 5915 5916 5916 5916 5915 5915 5915 5915 5915 5915 5914 5914 5914
5915 5915 5915 5915 5915 5915 5914 5914 5914 5913 5913 5913 5913 5913 5912 5912 5912 5912 5912 5912 5912 5912 5913 5913 5913 5914 5914 5914 5914 5914 5915 5915 5915 5914 5914 5913 5913 5913 5913 5913 5913 5913 5913
5916 5916 5916 5916 5915 5915 5915 5915 5915 5914 5914 5914 5913 5913 5913 5913 5913 5913 5913 5913 5913 5913 5913 5913 5913 5913 5913 5914 5914 5914 5914 5914 5914 5913 5913 5912 5911 5912 5912 5912 5912 5912 5912
5917 5916 5916 5916 5916 5916 5916 5916 5915 5915 5915 5914 5914 5914 5913 5913 5913 5913 5913 5913 5913 5913 5913 5913 5913 5913 5913 5913 5913 5913 5913 5913 5913 5912 5912 5911 5911 5911 5911 5911 5911 5911 5911
5917 5916 5916 5916 5915 5915 5915 5915 5915 5915 5915 5914 5914 5914 5914 5913 5913 5913 5913 5913 5913 5913 5913 5913 5913 5913 5913 5913 5912 5912 5912 5912 5912 5911 5911 5911 5911 5911 5911 5911 5910 5910 5910
5916 5916 5915 5915 5915 5915 5914 5914 5914 5914 5914 5914 5914 5914 5913 5913 5913 5913 5913 5912 5912 5912 5912 5912 5912 5912 5912 5912 5912 5911 5911 5911 5911 5911 5911 5910 5910 5910 5910 5910 5910 5910 5910
5915 5914 5914 5914 5913 5913 5913 5913 5913 5913 5913 5913 5913 5913 5913 5912 5912 5912 5912 5912 5912 5912 5912 5912 5912 5912 5912 5911 5911 5911 5911 5910 5910 5910 5910 5910 5910 5910 5910 5910 5910 5910 5910
5912 5912 5912 5911 5911 5911 5911 5911 5911 5911 5911 5911 5911 5911 5911 5911 5911 5911 5911 5911 5911 5911 5911 5911 5911 5911 5911 5911 5910 5910 5910 5910 5910 5910 5910 5910 5910 5910 5910 5910 5910 5910 5910
5910 5910 5909 5909 5908 5908 5908 5908 5908 5908 5908 5908 5908 5909 5909 5909 5909 5909 5909 5910 5910 5910 5910 5910 5910 5910 5910 5910 5910 5909 5909 5909 5909 5910 5909 5909 5910 5909 5909 5910 5910 5910 5910
5906 5906 5906 5905 5905 5905 5904 5904 5904 5904 5905 5905 5905 5905 5906 5906 5906 5907 5907 5908 5908 5908 5908 5908 5909 5909 5909 5909 5909 5908 5909 5909 5909 5909 5909 5909 5909 5909 5909 5909 5909 5910 5910
5903 5902 5901 5901 5901 5900 5900 5900 5900 5900 5900 5901 5901 5901 5902 5902 5903 5904 5904 5905 5905 5906 5906 5906 5907 5907 5907 5907 5907 5907 5907 5908 5908 5908 5908 5908 5909 5909 5909 5909 5909 5909 5910
5898 5898 5897 5896 5895 5895 5895 5894 5894 5895 5895 5896 5896 5897 5897 5898 5898 5900 5900 5901 5902 5902 5903 5903 5904 5904 5905 5905 5906 5906 5906 5907 5907 5907 5907 5908 5908 5908 5908 5909 5909 5909 5909
5892 5892 5891 5890 5889 5889 5889 5889 5889 5890 5890 5890 5890 5891 5892 5893 5894 5895 5896 5897 5898 5898 5899 5900 5900 5901 5902 5903 5903 5904 5904 5905 5906 5906 5906 5906 5907 5907 5907 5908 5908 5909 5909
5886 5885 5884 5883 5882 5882 5881 5881 5882 5883 5883 5884 5884 5885 5886 5887 5889 5890 5891 5892 5893 5894 5895 5896 5897 5898 5899 5900 5900 5901 5902 5903 5904 5904 5904 5905 5905 5906 5906 5907 5907 5908 5908
5878 5877 5876 5875 5875 5874 5874 5874 5874 5875 5875 5876 5877 5877 5879 5881 5883 5884 5885 5887 5888 5889 5891 5892 5893 5894 5895 5896 5897 5898 5899 5900 5901 5902 5902 5903 5903 5904 5905 5905 5906 5907 5907
5870 5868 5868 5867 5866 5866 5866 5866 5866 5867 5868 5869 5870 5871 5872 5874 5876 5877 5879 5881 5882 5884 5885 5887 5888 5890 5891 5892 5893 5894 5895 5896 5898 5899 5900 5900 5901 5902 5903 5903 5904 5905 5906
5861 5859 5858 5858 5857 5857 5857 5857 5857 5858 5859 5860 5862 5863 5865 5866 5868 5870 5872 5873 5875 5877 5879 5881 5882 5884 5886 5887 5889 5890 5891 5893 5894 5895 5896 5897 5898 5899 5900 5901 5902 5903 5904
5852 5851 5849 5848 5848 5847 5847 5847 5847 5848 5849 5851 5852 5854 5856 5858 5860 5862 5864 5866 5867 5870 5873 5875 5876 5878 5880 5882 5884 5886 5887 5888 5889 5890 5892 5894 5895 5896 5897 5898 5899 5900 5901
5844 5842 5840 5839 5838 5838 5837 5837 5837 5838 5839 5840 5842 5845 5847 5849 5852 5854 5856 5858 5860 5863 5865 5868 5870 5872 5874 5876 5878 5880 5882 5883 5885 5886 5888 5889 5891 5893 5894 5895 5896 5897 5898
5835 5833 5831 5830 5829 5828 5827 5826 5827 5827 5828 5830 5832 5834 5837 5839 5842 5845 5847 5850 5851 5855 5857 5860 5863 5865 5867 5870 5872 5874 5876 5878 5880 5881 5883 5884 5886 5888 5889 5891 5892 5893 5894
5828 5825 5823 5821 5819 5818 5817 5816 5816 5817 5818 5819 5821 5824 5826 5829 5832 5836 5839 5841 5844 5847 5849 5852 5855 5858 5860 5863 5865 5867 5870 5872 5873 5875 5877 5879 5881 5883 5884 5886 5888 5889 5890
5821 5818 5816 5813 5811 5809 5808 5807 5807 5807 5808 5809 5811 5813 5816 5819 5822 5826 5829 5832 5835 5838 5841 5843 5847 5850 5853 5855 5858 5861 5863 5865 5867 5870 5872 5873 5875 5877 5879 5881 5883 5884 5886
5815 5812 5809 5806 5804 5801 5800 5798 5798 5798 5799 5800 5801 5804 5806 5809 5812 5816 5819 5823 5826 5829 5832 5835 5839 5842 5845 5848 5850 5853 5856 5858 5861 5863 5866 5868 5869 5871 5873 5875 5877 5879 5881
5810 5807 5803 5800 5797 5795 5792 5791 5790 5789 5790 5791 5792 5794 5797 5799 5802 5806 5809 5813 5817 5820 5823 5827 5830 5833 5836 5839 5842 5845 5848 5851 5854 5856 5859 5861 5863 5865 5866 5869 5870 5872 5874
5807 5803 5799 5796 5792 5789 5787 5784 5783 5782 5782 5783 5784 5786 5788 5791 5794 5797 5800 5804 5807 5811 5815 5818 5821 5825 5828 5831 5834 5837 5840 5843 5845 5848 5851 5854 5855 5858 5860 5862 5864 5866 5867
Wind_Speed
7 8 8 8 7 7 6 6 6 6 5 5 5 6 6 6 6 6 7 7 7 7 8 9 10 10 11 11 11 11 11 10 11 10 10 10 10 10 9 10 10 10 9
6 6 6 6 6 6 6 6 6 5 5 5 5 5 5 5 5 5 6 6 6 6 6 7 7 8 8 9 9 9 10 9 9 10 10 10 10 10 10 10 10 10 9
4 4 5 5 5 5 5 5 5 5 5 5 5 5 5 5 4 5 5 6 5 5 6 6 6 6 7 7 7 7 7 8 8 8 9 10 9 8 8 8 8 8 9
3 3 3 3 4 4 4 4 4 4 4 4 4 4 4 4 4 4 4 5 5 5 5 5 5 5 6 6 6 6 7 7 7 7 8 8 6 5 6 7 7 8 8
4 4 3 4 4 4 4 3 4 4 4 4 4 4 4 4 4 4 4 4 5 5 5 5 5 4 5 5 5 6 6 6 6 5 6 6 5 4 5 6 7 6 6
6 5 5 5 5 5 5 5 5 4 4 4 4 4 4 4 4 4 4 5 5 5 5 5 5 4 4 4 4 5 5 5 5 4 4 5 3 3 4 5 5 5 4
7 8 8 8 7 7 7 7 6 6 6 6 6 5 5 5 5 5 5 5 5 5 5 5 5 4 4 4 4 4 4 4 4 4 4 4 3 3 3 3 4 3 3
9 10 10 10 10 10 10 9 9 9 8 8 8 7 7 7 6 6 6 6 6 6 5 5 5 4 4 4 4 4 3 3 3 3 3 3 3 3 3 3 3 3 3
12 12 13 13 13 13 13 13 13 12 11 11 10 10 9 8 8 8 8 7 7 7 6 6 5 5 4 4 4 4 3 3 2 2 3 3 2 2 2 2 2 2 3
16 15 15 16 16 15 15 15 16 16 15 14 13 13 12 11 10 10 10 9 9 9 8 7 6 6 5 5 5 4 4 3 2 2 3 3 2 2 2 1 1 2 2
19 19 19 19 19 18 19 19 18 19 18 18 17 16 15 14 14 13 12 11 11 11 10 9 8 7 7 6 6 5 4 4 3 3 4 3 3 3 2 2 2 2 2
22 22 22 22 22 22 22 22 22 21 21 21 20 20 19 18 17 16 15 14 14 13 12 11 10 9 9 8 7 7 6 5 4 4 4 4 3 3 2 2 2 2 2
25 25 25 26 26 26 25 24 24 24 24 24 24 23 23 22 20 19 18 17 16 16 15 14 13 12 11 10 9 9 8 7 6 6 6 5 5 4 3 3 3 3 3
28 28 29 29 29 29 28 28 28 28 28 27 26 24 25 24 23 21 21 20 19 18 17 17 16 15 14 13 12 11 10 9 8 8 8 7 6 6 5 4 4 4 4
32 32 32 32 32 32 32 32 31 30 31 31 30 28 26 26 25 24 24 23 22 21 20 19 18 17 16 15 14 13 12 11 10 10 10 9 8 8 7 6 6 5 5
35 36 36 36 36 35 35 35 35 33 33 32 32 31 30 29 27 26 26 26 25 23 22 21 20 20 19 18 16 15 14 13 13 12 12 11 10 10 9 9 8 8 7
37 38 38 38 38 38 38 38 37 37 36 35 34 34 33 32 31 28 28 28 28 26 25 24 22 21 21 20 19 18 17 16 15 14 14 13 12 12 11 10 10 10 9
39 39 39 39 39 39 39 39 39 40 39 38 37 35 34 33 33 31 30 30 30 29 28 27 26 24 23 22 21 20 19 18 18 17 16 15 15 14 13 13 12 12 11
38 39 39 39 40 40 40 40 39 40 40 40 39 37 37 36 34 32 32 31 30 30 29 29 29 27 25 24 23 22 21 20 20 19 18 18 17 17 16 15 15 14 14
35 36 37 37 38 39 39 40 40 41 41 40 40 40 38 38 36 35 32 31 32 32 31 30 30 29 27 27 26 25 23 22 22 21 21 20 20 19 18 18 17 17 17
32 33 34 34 35 36 38 39 39 40 40 40 40 40 39 38 38 37 35 34 33 32 32 32 31 29 28 28 26 25 25 25 25 23 23 23 22 21 21 20 19 19 19
30 31 31 31 32 33 35 36 37 38 39 38 39 39 40 39 38 38 38 36 36 34 33 34 33 31 30 29 27 27 25 24 25 25 25 24 24 23 22 22 21 21 21
27 27 28 29 30 30 31 33 34 35 36 37 37 37 38 38 37 37 38 38 36 34 34 33 33 33 32 32 29 28 27 26 26 25 25 25 25 24 24 23 23 22 22
25 25 26 26 27 27 28 29 30 31 32 33 35 36 36 36 36 37 36 37 36 35 34 34 33 33 33 32 32 31 30 29 27 26 26 26 26 26 26 25 25 24 23
22 22 23 22 23 23 24 25 26 28 29 29 30 32 33 33 35 35 35 36 36 35 35 35 35 34 33 33 32 32 32 31 30 29 28 28 27 27 27 27 27 26 25
20 20 20 20 20 20 21 21 22 23 24 25 26 27 28 29 31 32 33 35 35 35 35 36 36 35 33 33 33 33 33 32 31 30 29 29 29 29 29 28 29 28 28
Wind_Direction
107 106 107 107 108 110 113 118 122 126 132 139 149 159 167 177 185 195 204 211 216 220 223 228 232 233 239 248 252 255 261 266 267 267 273 277 278 282 287 289 289 298 302
119 116 117 118 120 122 123 125 129 132 137 144 151 160 166 175 182 188 196 203 208 212 214 221 229 233 240 249 255 256 259 266 270 271 276 276 275 276 283 288 289 295 301
139 134 132 131 134 138 140 139 139 141 144 149 156 164 170 173 177 181 191 200 207 212 216 220 228 236 243 248 254 257 260 268 272 273 277 279 277 275 281 287 292 295 297
180 170 165 163 159 158 160 158 155 154 157 159 161 168 176 180 181 183 188 195 202 208 214 221 228 236 241 244 250 256 264 272 277 277 278 287 287 289 290 293 298 301 301
226 216 207 204 199 196 193 190 185 180 180 181 180 179 183 187 188 188 189 194 202 209 214 221 227 235 240 244 254 261 268 275 279 283 288 294 297 302 300 301 304 307 308
247 243 236 232 227 224 223 221 220 216 211 208 206 203 200 198 198 200 200 201 204 209 216 221 226 233 243 250 259 266 270 273 274 279 288 299 313 325 320 319 318 314 312
257 254 251 247 244 240 238 237 236 234 231 230 228 225 223 219 214 212 213 214 215 218 223 227 231 238 244 251 261 270 275 273 272 274 277 298 321 325 329 333 333 332 328
263 261 259 256 253 250 248 247 246 243 241 240 239 237 235 233 231 228 226 225 226 227 228 231 235 237 240 252 264 275 282 280 278 269 278 296 311 318 325 331 343 351 351
267 264 262 260 259 255 252 252 251 251 250 249 246 244 243 242 241 239 237 235 235 236 237 238 240 242 244 250 262 274 285 284 276 266 269 282 301 312 321 320 342 357 359
270 267 265 263 262 259 256 255 254 252 253 253 251 249 249 248 246 245 244 242 242 242 243 244 245 245 247 249 257 268 276 280 280 262 267 283 289 305 317 325 324 347 2
273 272 270 267 264 262 260 258 256 254 253 253 252 251 249 249 249 246 246 246 246 246 246 247 248 248 249 252 256 261 266 269 269 257 263 269 274 288 298 313 315 322 335
275 273 271 269 267 265 262 259 258 257 255 254 254 252 250 250 250 250 249 248 247 248 248 249 249 249 249 250 253 255 258 257 256 254 258 260 264 270 278 290 297 305 313
276 274 273 272 270 268 268 264 260 260 261 258 255 253 250 249 249 248 249 248 248 248 249 249 248 248 248 249 251 252 254 255 251 250 253 254 254 255 259 266 274 286 295
277 275 274 273 271 270 270 269 267 263 262 260 256 257 253 249 248 248 249 249 249 248 249 251 250 250 249 249 251 251 252 251 249 251 252 251 252 250 251 256 262 269 273
276 275 275 274 273 272 271 270 269 266 264 263 258 256 256 252 250 248 247 248 249 248 248 250 251 252 251 249 250 250 251 251 247 248 251 251 251 251 251 253 257 260 262
278 276 276 275 273 272 272 271 271 268 266 264 263 259 257 254 254 252 250 249 249 249 249 250 252 252 253 251 252 252 252 251 250 245 248 249 250 252 253 254 255 257 259
280 279 278 276 274 273 273 273 272 270 269 268 266 264 259 255 255 255 252 251 249 249 249 250 252 252 253 253 253 253 253 252 252 247 247 249 250 251 252 253 254 256 258
281 280 279 277 277 275 274 274 273 272 270 270 269 266 263 261 259 258 255 254 251 248 249 250 251 252 253 253 253 253 253 253 252 249 247 247 250 251 252 253 254 256 258
282 282 280 279 278 277 276 274 273 273 270 268 267 265 262 260 258 257 256 255 254 250 250 252 252 252 251 252 252 252 252 252 253 251 248 247 248 252 253 253 254 255 256
286 284 282 280 279 277 276 274 273 272 271 268 265 264 262 258 255 253 255 255 254 251 250 251 251 250 250 251 251 251 251 251 253 253 250 247 247 250 252 253 254 254 255
289 287 285 282 279 277 275 273 272 271 270 268 265 263 260 259 255 253 253 253 255 254 251 250 251 248 248 249 250 250 251 252 251 252 252 250 249 249 248 251 253 254 254
294 290 287 285 283 279 276 273 271 270 268 266 263 261 259 257 254 253 254 254 254 255 254 253 250 247 247 248 249 249 249 250 250 250 250 250 249 248 248 249 252 253 255
300 296 292 289 286 284 279 275 272 269 267 265 263 260 257 254 254 253 253 253 253 253 253 252 250 249 249 249 247 246 247 247 249 250 250 250 248 248 248 250 252 253 255
306 303 298 295 292 289 284 279 273 269 266 265 262 259 257 255 252 252 252 251 251 251 252 253 251 249 249 250 248 246 245 246 249 248 250 250 249 249 249 250 251 253 253
313 311 308 302 298 295 290 285 277 271 267 263 260 258 256 255 254 252 250 251 251 249 252 253 252 250 248 248 250 248 246 245 248 248 250 249 248 249 250 251 252 253 254
325 322 319 313 309 305 300 293 285 276 269 265 260 258 256 255 253 252 249 248 248 248 248 250 249 248 248 248 249 250 249 248 250 249 249 248 249 249 250 252 253 254 256